weather.gov     
National Weather Service

Regional Weather Roundup
NWS Homepage
This page is being discontinued on March 12, 2014.
The same data is available at this site. Please update your bookmarks.
Thank you, and we apologize for the inconvenience.
Please send an email to SR-SRH.Webmaster@noaa.gov with any concerns.


Current Version
Previous Version:    01  02  03  04  05  06  07  08  09  10  11  12  13  14  15  16  17  18  19  20  21  22  23  24  25  26  27  28  29  30  
   31  32  33  34  35  36  37  38  39  40  41  42  43  44  45  46  47  48  49  50  51  52  53  54  55  56  57  58  59  60  
[Printable]
891
ASUS43 KLOT 191110
RWRIL

ILLINOIS REGIONAL WEATHER ROUNDUP
NATIONAL WEATHER SERVICE CHICAGO/ROMEOVILLE IL
600 AM CDT SAT APR 19 2014

NOTE: "FAIR" INDICATES FEW OR NO CLOUDS BELOW 12,000 FEET WITH NO
SIGNIFICANT WEATHER AND/OR OBSTRUCTIONS TO VISIBILITY.

* THESE STATIONS ARE NOT UNDER NWS QUALITY CONTROL. THEY ALSO MAY NOT
  REPORT WEATHER SUCH AS PRECIPITATION OR FOG.

ILZ001-002-007-009-015-016-024-191200-
NORTHWEST ILLINOIS

CITY           SKY/WX    TMP DP  RH WIND       PRES   REMARKS
MOLINE         PTCLDY    34  29  82 E5        30.30S WCI  30
STERLING*      CLEAR     34  27  75 E12       30.32S WCI  25
SAVANNA*       PTCLDY    33  27  81 E5        30.32F WCI  28
$$

ILZ003-004-008-010-011-017-018-191200-
NORTH CENTRAL ILLINOIS

CITY           SKY/WX    TMP DP  RH WIND       PRES   REMARKS
ROCKFORD       PTCLDY    35  26  69 E7        30.36F WCI  29
FREEPORT*      CLEAR     31  28  86 E7        30.35F WCI  25
ROCHELLE*      CLEAR     32  28  83 E8        30.34S WCI  25
DE KALB*       CLEAR     32  28  82 E10       30.35S WCI  24
PERU*          CLEAR     36  29  77 CALM      30.33R
$$

ILZ005-006-012>014-019>023-191200-
NORTHEAST ILLINOIS

CITY           SKY/WX    TMP DP  RH WIND       PRES   REMARKS
CHICAGO-OHARE  PTCLDY    37  28  70 NE8       30.37R WCI  31
CHICAGO-MIDWAY PTCLDY    38  32  79 NE8       30.37R WCI  32
AURORA         CLEAR     35  28  75 NE9       30.35S WCI  28
LANSING*       CLEAR     36  32  84 NE6       30.36S WCI  31
WAUKEGAN       CLEAR     34  28  79 NE7       30.38R WCI  28
DUPAGE AIRPORT CLEAR     33  28  81 NE6       30.35S WCI  28
KANKAKEE*      CLEAR     33  30  88 NE6       30.34S WCI  28
WHEELING       CLEAR     37  29  72 E3        30.40R
MORRIS*        CLEAR     34  27  75 NE5       30.34S WCI  30
ROMEOVILLE*    CLEAR     37  30  76 NE10      30.35R WCI  29
NORTHERLY ISL    N/A     39  33  79 NE10        N/A  WCI  32
$$

LMZ740>746-191200-
SOUTHERN LAKE MICHIGAN

STATION/POSITION SKY/WX   TEMP    WIND        PRES    VSBY  WAVE
                          AIR SEA DIR/SP/G                  HT/PER
                          (F)     (DEG/KT/KT) (MB)    (MI)  (FT/S)
WAUKEGAN HARBOR            36      60/ 13/ 15 1029.8S
HARRISON CRIB              38      50/ 16/ 18   N/A
BURNHAM HARBOR             39      40/  8/ 12   N/A
CALUMET HARBOR             38      30/  9/ 11 1029.0R
MICHIGAN CITY              38      40/ 11/ 12   N/A
$$

ILZ025>027-034>036-040-047-049-050-058-095>099-191200-
WEST-CENTRAL ILLINOIS

CITY           SKY/WX    TMP DP  RH WIND       PRES   REMARKS
QUINCY         CLEAR     44  35  70 E13       30.25S
GALESBURG*     PTCLDY    36  29  75 E8        30.28F WCI  30
MACOMB*        CLEAR     36  31  81 E6        30.31R WCI  31
JACKSONVILLE*  CLEAR     36  32  85 E8        30.29S WCI  30
PITTSFIELD*    CLEAR     43  35  72 E5        30.28S
$$

ILZ028>032-037-038-041>044-048-051>054-059>061-191200-
CENTRAL ILLINOIS

CITY           SKY/WX    TMP DP  RH WIND       PRES   REMARKS
PONTIAC        CLEAR     37  30  75 E10       30.33R WCI  30
BLOOMINGTON    CLEAR     31  25  78 E9        30.32R WCI  23
DECATUR        CLEAR     36  30  79 E6        30.31R WCI  31
PEORIA         CLEAR     39  24  55 E8        30.32R WCI  33
LACON*         CLEAR     32  27  81 CALM      30.32S
LINCOLN*       CLEAR     36  28  72 NE6       30.31S WCI  31
SPRINGFIELD    CLEAR     39  31  72 E6        30.30R WCI  35
TAYLORVILLE    CLEAR     41  32  70 E9        30.29R
$$

ILZ033-039-045-046-055>057-062-063-191200-
EAST-CENTRAL ILLINOIS

CITY           SKY/WX    TMP DP  RH WIND       PRES   REMARKS
CHAMPAIGN      CLEAR     37  28  70 E12       30.31R WCI  29
RANTOUL*       CLEAR     37  28  69 NE7       30.33R WCI  32
MATTOON          N/A     38  32  79 E6        30.29R WCI  33
PARIS*         CLEAR     40  31  70 NE6       30.32R
$$

ILZ079-100>102-191200-
SOUTHWEST ILLINOIS

CITY           SKY/WX    TMP DP  RH WIND       PRES   REMARKS
ALTON          PTCLDY    46  38  74 E7        30.27R
BELLEVILLE     PTCLDY    46  42  86 NE3       30.26R
CAHOKIA*       PTCLDY    47  40  76 CALM      30.26R
SPARTA*        PTCLDY    46  39  76 E5        30.26R
$$

ILZ064>066-069>071-074>076-080>082-084>086-088>090-092>094-191200-
SOUTH-CENTRAL ILLINOIS

CITY           SKY/WX    TMP DP  RH WIND       PRES   REMARKS
CARBONDALE     PTCLDY    44  43  96 CALM      30.25R FOG
CAIRO*         CLEAR     50  43  75 N3        30.23R
MARION         PTCLDY    45  43  93 CALM      30.25R
MT. VERNON     MOCLDY    48  34  57 NE7       30.27R
CENTRALIA*       N/A     47  39  73 CALM      30.27R
SALEM*         PTCLDY    49  41  73 NE7       30.27S
METROPOLIS*    CLEAR     48  40  75 CALM      30.22R
$$

ILZ067-068-072-073-078-083-087-091-191200-
SOUTHEAST ILLINOIS

CITY           SKY/WX    TMP DP  RH WIND       PRES   REMARKS
FAIRFIELD*     PTCLDY    48  43  81 N6        30.27
HARRISBURG*    PTCLDY    50  41  71 N5        30.26R
ROBINSON*      CLEAR     44  40  84 N7        30.30R
CARMI*         PTCLDY    51  44  77 N7        30.25R
$$

ABBREVIATIONS USED IN REMARKS
   TC - TEMPERATURE IN CELSIUS
  WCI - WIND CHILL INDEX
   HX - HEAT INDEX
  VSB - VISIBILITY
$$





U.S. Dept. of Commerce
NOAA National Weather Service
1325 East West Highway
Silver Spring, MD 20910
E-mail: w-nws.webmaster@noaa.gov
Page last modified: May 16, 2007
NATIONAL WEATHER SERVICE: for Safety, for Work, for Fun - FOR LIFE